Lexington Weather

Lexington, Massachusetts, USA

78°F
8/3/2020 8:08am 
  • Lexington Conditions: Few Clouds
  • Temperature: 78.1°F / 25.6°CWarmer 1.6°F than last hour.
  • Dew Point: 72.5°FDecreased 2.2°Fsince last hour.
  • Relative Humidity: 83%Decreased 11.0% since last hour.
  • Wind: Wind from W W 2 mph, 10-min avg: 3 mph, gust: 9 mph
  • Barometer: 29.85 in Steady
  • Visibility: 10 miles
  • Rain Today: 0.00 in
  •   
Southeast Middlesex County - Tropical Storm Watch - Tropical Cyclone Statement
 - SEE ALL NEARBY ALERTS -

Regional Weather Roundup
for Boston / Norton, MA

        
000
ASUS41 KBOX 011304
RWRBOX

REGIONAL WEATHER ROUNDUP
NATIONAL WEATHER SERVICE BOSTON/NORTON MA
900 AM EDT SAT AUG 01 2020

NOTE:  "FAIR" INDICATES FEW OR NO CLOUDS BELOW 12,000 FEET WITH NO 
SIGNIFICANT WEATHER AND/OR OBSTRUCTIONS TO VISIBILITY.

MAZALL-011400-
EASTERN MASSACHUSETTS
  
CITY           SKY/WX    TMP DP  RH WIND       PRES   REMARKS
BOSTON         MOSUNNY   77  62  59 VRB5      29.94R                  
BEVERLY        SUNNY     78  64  61 VRB5      29.93R                  
LAWRENCE       SUNNY     76  63  64 N6        29.96R                  
BEDFORD        SUNNY     77  64  64 N5        29.93R                  
BLUE HILL      NOT AVBL                                               
NORWOOD        SUNNY     78  64  61 N5        29.93R                  
MARSHFIELD     SUNNY     79  66  65 VRB3      29.92R                  
PLYMOUTH       SUNNY     78  67  68 NE5       29.93R                  
TAUNTON        SUNNY     78  68  71 CALM      29.92R                  
NEW BEDFORD    SUNNY     79  71  76 NW5       29.92R                  
$$

MAZALL-011400-
CAPE COD AND THE ISLANDS
  
CITY           SKY/WX    TMP DP  RH WIND       PRES   REMARKS
FALMOUTH       NOT AVBL                                               
HYANNIS        SUNNY     80  68  66 N8        29.91R                  
CHATHAM        SUNNY     79  66  64 VRB3      29.93R                  
PROVINCETOWN   SUNNY     77  69  76 NW6       29.93                   
NANTUCKET      SUNNY     78  68  71 N10       29.91R                  
MARTHAS VNYRD  SUNNY     79  65  62 N7        29.92R                  
$$
 
MAZALL-011400-
CENTRAL AND WESTERN MASSACHUSETTS
  
CITY           SKY/WX    TMP DP  RH WIND       PRES   REMARKS
WORCESTER      SUNNY     76  60  57 NE8       29.98R                  
FITCHBURG      SUNNY     80  61  52 VRB5      29.96R                  
ORANGE         SUNNY     75  62  64 NW6       29.98R                  
SPRINGFIELD    MOSUNNY   75  61  62 N3        29.95R                  
WESTFIELD      SUNNY     76  61  59 NE3       29.96R                  
NORTH ADAMS    SUNNY     69  59  70 CALM      29.98S                  
PITTSFIELD     SUNNY     73  61  65 CALM      29.98R                  
$$
 
RIZALL-011400-
RHODE ISLAND
  
CITY           SKY/WX    TMP DP  RH WIND       PRES   REMARKS
PROVIDENCE     MOSUNNY   79  68  69 N6        29.93R                  
NEWPORT        SUNNY     79  70  74 N5        29.93R                  
BLOCK ISLAND   SUNNY     77  69  76 NW5       29.93R                  
SMITHFIELD     SUNNY     76  65  68 N7        29.95R                  
WESTERLY       SUNNY     79  68  69 NE5       29.93R                  
$$
 
CTZALL-011400-
CONNECTICUT
  
CITY           SKY/WX    TMP DP  RH WIND       PRES   REMARKS
BRADLEY INTL   MOSUNNY   77  60  55 N7        29.95R                  
HARTFORD       SUNNY     77  62  59 N6        29.95R                  
BRIDGEPORT     SUNNY     78  64  61 N9        29.93R                  
DANBURY        SUNNY     77  64  64 NE6       29.97R                  
GROTON         SUNNY     77  69  76 N8        29.92R                  
NEW HAVEN      MOSUNNY   78  64  61 N10       29.93R                  
CHESTER        NOT AVBL                                               
MERIDEN        SUNNY     78  60  53 N7        29.95R                  
WILLIMANTIC    SUNNY     75  64  68 VRB3      29.95R                  
OXFORD         SUNNY     74  63  68 N8        29.98R                  
$$

MEZ002-015-021-024-NHZ003-005-008-011-012-014-VTZ005-008-011400-
NORTHERN NEW ENGLAND
  
CITY           SKY/WX    TMP DP  RH WIND       PRES   REMARKS
PORTLAND ME    SUNNY     79  62  56 N6          N/A                   
BANGOR ME      SUNNY     73  61  65 N6        29.92R                  
CONCORD NH     SUNNY     74  61  63 VRB6      29.96R                  
MANCHESTER NH  MOSUNNY   78  61  55 NW6       29.93R                  
NASHUA NH      SUNNY     76  64  66 N3        29.95R                  
PORTSMOUTH NH  MOSUNNY   78  60  54 N5        29.92R                  
JAFFREY NH     SUNNY     74  61  63 VRB3      29.99R                  
KEENE NH       SUNNY     70  62  76 CALM      29.98R                  
BURLINGTON VT  SUNNY     74  60  61 CALM      29.97R                  
MT. WASHINGTON PTSUNNY   52  43  71 N12         N/A                   
$$

NYZ052-076-011400-
EASTERN NEW YORK
  
CITY           SKY/WX    TMP DP  RH WIND       PRES   REMARKS
ALBANY         MOSUNNY   71  63  75 NW5       29.98R                  
NEW YORK CITY  MOSUNNY   78  63  59 NE8       29.94R                  
$$
 
ANZALL-011400-
MARINE OBSERVATIONS
  
STATION/POSITION TIME  TEMP    WIND        PRES    VSBY  WAVE
                       AIR SEA DIR/SP/G                  HT/PER
                 (UTC) (F)     (DEG/KT/KT) (MB)    (MI)  (FT/S)
BOSTON BUOY      1250   72 73  320/  4/  6 1012.0R         1/10
BUZZARDS BAY     1200          330/  2/  2 1013.8R
NANTUCKET SOUND  1250      76   20/  8/ 10   N/A           1
MASS BAY-STELLWA 1204   72      30/  8/ 10 1010.7R  1 7/8  2/ 8
ISLE OF SHOALS   1200   70      10/  9/  9 1012.5R
S OF BLOCK IS    1226      73                N/A           3/13
$$

......................KEY.........................
  SKY/WX - SKY CONDITION/PRESENT WEATHER
  TMP    - TEMPERATURE IN FAHRENHEIT
  DWPT   - DEWPOINT IN FAHRENHEIT
  RH     - RELATIVE HUMIDITY IN PERCENT
  WIND   - DIRECTION AND SPEED IN MPH
  PRES   - MEAN SEA LEVEL PRESSURE IN INCHES OF HG
  WCI    - WIND CHILL INDEX
  VSB    - VISIBILITY IN MILES
  HX     - HEAT INDEX
  TC     - TEMPERATURE IN CELSIUS
  VRB    - VARIABLE WIND DIRECTION
  N/A    - NOT AVAILABLE
  
      

Other recent Regional Weather Roundups

Mon Aug 3, 7:04am

Mon Aug 3, 6:04am

Mon Aug 3, 5:04am

Mon Aug 3, 4:04am

Mon Aug 3, 3:04am

Mon Aug 3, 2:04am

Mon Aug 3, 1:04am

Mon Aug 3, 12:05am

Sun Aug 2, 11:04pm

Sun Aug 2, 10:04pm

Sun Aug 2, 9:04pm

Sun Aug 2, 8:04pm

Sun Aug 2, 7:04pm

Sun Aug 2, 6:04pm

Sun Aug 2, 5:04pm

Sun Aug 2, 4:05pm

Sun Aug 2, 3:04pm

Sun Aug 2, 2:05pm

Sun Aug 2, 1:04pm

Sun Aug 2, 12:04pm

Sun Aug 2, 11:04am

Sun Aug 2, 10:04am

Sun Aug 2, 9:05am

Sun Aug 2, 8:05am

Sun Aug 2, 7:04am

Sun Aug 2, 6:04am

Sun Aug 2, 5:04am

Sun Aug 2, 4:05am

Sun Aug 2, 3:04am

Sun Aug 2, 2:04am

Sun Aug 2, 1:04am

Sun Aug 2, 12:05am

Sat Aug 1, 11:04pm

Sat Aug 1, 10:04pm

Sat Aug 1, 9:04pm

Sat Aug 1, 8:05pm

Sat Aug 1, 7:04pm

Sat Aug 1, 6:04pm

Sat Aug 1, 5:05pm

Sat Aug 1, 4:05pm

Sat Aug 1, 3:04pm

Sat Aug 1, 2:04pm

Sat Aug 1, 1:04pm

Sat Aug 1, 12:04pm

Sat Aug 1, 11:05am

Sat Aug 1, 10:05am

Sat Aug 1, 8:04am

Sat Aug 1, 7:04am

Sat Aug 1, 6:04am

Sat Aug 1, 5:04am

Sat Aug 1, 4:05am

Sat Aug 1, 3:04am

Sat Aug 1, 2:04am

Sat Aug 1, 1:04am

Sat Aug 1, 12:05am

Fri Jul 31, 11:05pm

Fri Jul 31, 10:04pm

Fri Jul 31, 9:04pm

Fri Jul 31, 8:05pm

Fri Jul 31, 7:05pm

Fri Jul 31, 6:04pm

Fri Jul 31, 5:04pm

Fri Jul 31, 4:05pm

Fri Jul 31, 3:04pm

Fri Jul 31, 2:05pm

Fri Jul 31, 1:04pm

Fri Jul 31, 12:04pm

Fri Jul 31, 11:04am

Fri Jul 31, 10:04am

Fri Jul 31, 9:04am

Fri Jul 31, 8:04am

Fri Jul 31, 7:04am

Fri Jul 31, 6:04am

Fri Jul 31, 5:04am

Fri Jul 31, 4:04am

Fri Jul 31, 3:04am

Fri Jul 31, 2:04am

Fri Jul 31, 1:05am

Fri Jul 31, 12:04am

Thu Jul 30, 11:04pm

Thu Jul 30, 10:04pm

Thu Jul 30, 9:04pm

Thu Jul 30, 8:04pm

Thu Jul 30, 7:05pm

Thu Jul 30, 6:04pm

Thu Jul 30, 5:04pm

Thu Jul 30, 4:05pm

Thu Jul 30, 3:04pm

Thu Jul 30, 2:05pm

Thu Jul 30, 1:04pm

Thu Jul 30, 12:04pm

Thu Jul 30, 11:04am

Thu Jul 30, 10:05am

Thu Jul 30, 9:04am

Thu Jul 30, 8:04am

Thu Jul 30, 7:04am

Thu Jul 30, 6:04am

Thu Jul 30, 5:04am

Thu Jul 30, 4:04am

Thu Jul 30, 3:04am

Thu Jul 30, 2:04am

Thu Jul 30, 1:04am

Thu Jul 30, 12:04am

Wed Jul 29, 11:04pm

Wed Jul 29, 10:04pm

Wed Jul 29, 9:04pm

Wed Jul 29, 8:04pm

Wed Jul 29, 7:05pm

Wed Jul 29, 6:05pm

Wed Jul 29, 5:04pm

Wed Jul 29, 4:04pm

Wed Jul 29, 3:04pm

Wed Jul 29, 2:04pm

Wed Jul 29, 1:05pm

Wed Jul 29, 12:05pm

Wed Jul 29, 11:04am

Wed Jul 29, 10:04am

Wed Jul 29, 9:04am

Wed Jul 29, 8:04am

Wed Jul 29, 7:04am

Wed Jul 29, 6:04am

Wed Jul 29, 5:04am

Wed Jul 29, 4:04am

Wed Jul 29, 3:04am

Wed Jul 29, 2:04am

Wed Jul 29, 1:04am

Wed Jul 29, 12:05am

Tue Jul 28, 11:05pm

Tue Jul 28, 10:05pm

Tue Jul 28, 9:04pm

Tue Jul 28, 8:04pm

Tue Jul 28, 7:04pm

Tue Jul 28, 6:04pm

Tue Jul 28, 5:04pm

Tue Jul 28, 4:05pm

Tue Jul 28, 3:05pm

Tue Jul 28, 2:04pm

Tue Jul 28, 1:05pm

Tue Jul 28, 12:04pm

Tue Jul 28, 11:04am

Tue Jul 28, 10:04am

Tue Jul 28, 9:04am

Tue Jul 28, 8:04am

Tue Jul 28, 7:04am

Tue Jul 28, 6:04am

Tue Jul 28, 5:04am

Tue Jul 28, 4:04am

Tue Jul 28, 3:04am

Tue Jul 28, 2:04am

Tue Jul 28, 1:04am

Tue Jul 28, 12:05am

Mon Jul 27, 11:04pm

Mon Jul 27, 10:05pm

Mon Jul 27, 9:05pm

Mon Jul 27, 8:04pm

Mon Jul 27, 7:04pm

Mon Jul 27, 6:05pm

Mon Jul 27, 5:05pm

Mon Jul 27, 4:04pm

Mon Jul 27, 3:04pm

Mon Jul 27, 2:04pm

Mon Jul 27, 1:04pm

Mon Jul 27, 12:04pm

Mon Jul 27, 11:04am

Mon Jul 27, 10:04am

Mon Jul 27, 9:04am

Mon Jul 27, 8:04am

Meta data:

ID: 5433da86-1359-4718-a7e2-f1a49a35cb60
Link: https://api.weather.gov/products/5433da86-1359-4718-a7e2-f1a49a35cb60